SCOUT X-4 R/B, 933

Orbit data source: Space-Track

SCOUT X-4 R/B, 933 is space debris in LEO originally from a launch on Sat, 21 Nov 1964 UTC launched from the Air Force Western Test Range (AFWTR). Debris objects in space refer to the collection of defunct objects orbiting the Earth. Examples of debris include non-operational satellites, rocket bodies, and fragments generated from explosions, collisions, or faulty payload assembly.

Loading next visibility...
Identifier
933, 1964-076C
Orbit
LEO
Country
Flag of USUS
Related business
Manufacturer
ABL
Mission
Spacecraft
Bus & Motor
ALTAIR, Unknown motor
Mass
33 kg wet, 33 kg dry
Launch date (UTC)
1964-11-21 (61 years ago)
Launch vehicle
Unknown
Launch site
Air Force Western Test Range (AFWTR)
Object type
Payload
Rocket body
Debris
Shape & HBR
Cyl, 0.8 m
Radar Cross Section
0.687 m², Medium (>0.1 m² and < 1m²)

Expand to show TLE details & history
Last TLE update: 13 hours ago

TLE from 13 hours ago
0 SCOUT X-4 R/B
1 00933U 64076C   25260.64765309  .00000885  00000-0  29938-3 0  9998
2 00933  81.3424   5.1765 1051762 268.6535  79.4084 12.81762232801656
Epoch: 2025-09-17T15:32Z
TLE epoch observation values (Epoch: 2025-09-17T15:32:37.226Z)
Latitude
-0.00004°
Longitude
135.20079°
Altitude
1,272.299 km
Speed
7.25 km/s
True Right ascension
00h 20m 42s
True Declination
0° 00' 00"
Sunlit
Object was in full shadow at epoch
Visualization orbit readout
Latitude
Unknown
Longitude
Unknown
Altitude
Unknown
Speed
Unknown
Apparent Right ascension
Unknown
Apparent Declination
Unknown
Sunlit
N/A
Visualization observer readout
Local Sidereal Time
21:09:08
Azimuth
Unknown
Elevation
Unknown
Doppler factor
Unknown
Orbital elements
Apogee altitude
2,142.583 km
Perigee altitude
520.802 km
Semi-major axis
7,709.829 km
Eccentricity
0.10518
Inclination
81.3424°
RAAN
5.1765°
Arg. of periapsis
268.6535°
True anomaly
91.45873°
Mean anomaly
79.4084°
Eccentric anomaly
85.41527°
Mean motion
3.20609 °/min
Orbital period
112.29 mins
BSTAR
0.00029938
Loading maneuver chart data...
Computing Atmospheric mass density...
Loading historical data...
Loading historical data...
Loading historical data...
Loading historical data...
Loading historical data...
Loading historical data...
Loading historical data...

Documentation

Showing up to 5 results
|